Flag for Pakistan Weather past 2 weeks in Karachi, Sindh, Pakistan

Now
88 °F

Low level haze.


Feels Like: 88 °F
Forecast: 82 / 98 °F
Wind: 18 mph from Southwest

Location: Karachi Airport

Current Time: Apr 19, 2015 at 7:31:43 PM

Latest Report: Apr 19, 2015 at 6:55 PM


Visibility: 3 mi

Pressure: 29.65 "Hg

Humidity: 40%

Dew point: 61 °F

Location of KarachiLocation

Historic Weather in Karachi — Graph

°F

Karachi temperature yesterday

Maximum temperature yesterday: 95 °F (at 12:25 PM)
Minimum temperature yesterday: 82 °F (at 1:55 AM)
Average temperature yesterday: 87 °F

Past Weeks' High & Low Weather Summary

 TemperatureHumidityPressure
High104 °F (Apr 16, 12:25 PM)89% (Apr 8, 6:55 AM)30.11 "Hg (Apr 8, 6:55 AM)
Low73 °F (Apr 5, 6:25 AM)11% (Apr 10, 10:25 AM)29.62 "Hg (Apr 18, 3:55 PM)
Average87 °F44%29.81 "Hg
* Reported Apr 4 6:25 PM — Apr 19 6:25 PM, Karachi, Weather by CustomWeather, © 2015

Note: Actual official high and low records may vary slightly from our data, if they occured in-between our weather recording intervals... More about our weather records

Advertising

Karachi weather history for previous 24 hours

 ConditionsComfort  
Time TempWeatherWind HumidityBarometerVisibility
6:25 PM
Sun, Apr 19
90 °FLow level haze.17 mph41%29.65 "Hg3 mi
5:55 PM91 °FLow level haze.18 mph34%29.65 "Hg3 mi
5:25 PM93 °FLow level haze.18 mph32%29.65 "Hg3 mi
4:55 PM93 °FLow level haze.12 mph32%29.65 "Hg3 mi
4:25 PM95 °FClear.21 mph28%29.65 "Hg4 mi
3:55 PM95 °FClear.21 mph28%29.65 "Hg4 mi
3:25 PM95 °FClear.18 mph30%29.65 "Hg4 mi
2:55 PM95 °FClear.15 mph34%29.68 "Hg4 mi
2:25 PM95 °FClear.14 mph36%29.68 "Hg4 mi
1:55 PM95 °FClear.14 mph36%29.71 "Hg4 mi
1:25 PM95 °FClear.15 mph39%29.71 "Hg4 mi
12:55 PM95 °FClear.14 mph36%29.74 "Hg4 mi
12:25 PM95 °FClear.13 mph32%29.74 "Hg4 mi
11:55 AM97 °FClear.12 mph30%29.74 "Hg4 mi
11:25 AM97 °FClear.14 mph23%29.74 "Hg4 mi
10:55 AM97 °FClear.14 mph23%29.74 "Hg4 mi
10:25 AM95 °FClear.12 mph26%29.74 "Hg4 mi
9:55 AM95 °FClear.10 mph26%29.74 "Hg4 mi
9:25 AM91 °FClear.9 mph34%29.74 "Hg4 mi
8:55 AM88 °FClear.8 mph46%29.74 "Hg4 mi
8:25 AM86 °FClear.9 mph52%29.71 "Hg4 mi
8:00 AM84 °FClear.12 mph58%29.71 "Hg4 mi
7:30 AM82 °FClear.10 mph66%29.71 "Hg4 mi
7:00 AM82 °FClear.9 mph66%29.68 "Hg4 mi
6:30 AM82 °FClear.7 mph66%29.68 "Hg4 mi
6:00 AM82 °FClear.6 mph62%29.68 "Hg4 mi
4:59 AM82 °FHaze.7 mph58%29.65 "Hg3 mi
4:25 AM82 °FHaze.8 mph55%29.65 "Hg3 mi
3:55 AM82 °FClear.13 mph58%29.65 "Hg4 mi
3:25 AM82 °FClear.12 mph58%29.65 "Hg4 mi
2:25 AM82 °FClear.6 mph58%29.68 "Hg4 mi
1:55 AM82 °FClear.7 mph62%29.68 "Hg4 mi
1:25 AM82 °FClear.6 mph62%29.68 "Hg4 mi
12:55 AM82 °FClear.7 mph62%29.71 "Hg4 mi
12:25 AM84 °FClear.6 mph58%29.71 "Hg4 mi
11:55 PM
Sat, Apr 18
84 °FClear.8 mph62%29.71 "Hg4 mi
11:25 PM84 °FClear.7 mph62%29.71 "Hg4 mi
11:00 PM84 °FClear.9 mph62%29.71 "Hg4 mi
10:30 PM84 °FClear.9 mph62%29.71 "Hg4 mi
10:00 PM84 °FClear.8 mph66%29.71 "Hg4 mi
9:25 PM84 °FClear.8 mph66%29.71 "Hg4 mi
8:55 PM84 °FClear.9 mph66%29.71 "Hg4 mi
8:25 PM84 °FClear.16 mph62%29.68 "Hg4 mi
7:55 PM86 °FClear.18 mph59%29.68 "Hg4 mi
7:25 PM86 °FClear.17 mph55%29.68 "Hg4 mi
Weather by CustomWeather, © 2015

See weather overviewHow to use our weather pages